Time,TemperatureF,DewpointF,PressureIn,WindDirection,WindDirectionDegrees,WindSpeedMPH,WindSpeedGustMPH,Humidity,HourlyPrecipIn,Conditions,Clouds,dailyrainin,SolarRadiationWatts/m^2,SoftwareType,DateUTC
2013-11-17 00:01:00,77.5,72.3,30.04,ENE,68,4.0,9.0,84,0.00,,,0.23,0.0,meteohub,2013-11-17 05:01:00,
2013-11-17 00:02:00,77.5,72.3,30.04,ENE,75,1.0,9.0,84,0.00,,,0.23,0.0,meteohub,2013-11-17 05:02:00,
2013-11-17 00:07:00,77.5,72.7,30.04,East,82,2.0,9.0,85,0.00,,,0.00,0.0,meteohub,2013-11-17 05:07:00,
2013-11-17 00:12:00,77.5,72.7,30.04,East,97,8.0,9.0,85,0.00,,,0.00,0.0,meteohub,2013-11-17 05:12:00,
2013-11-17 00:17:00,77.7,72.9,30.04,ESE,115,5.0,11.0,85,0.00,,,0.00,0.0,meteohub,2013-11-17 05:17:00,
2013-11-17 00:22:00,77.5,73.0,30.04,East,98,10.0,11.0,86,0.00,,,0.00,0.0,meteohub,2013-11-17 05:22:00,
2013-11-17 00:27:00,77.4,72.9,30.03,ESE,115,13.0,15.0,86,0.00,,,0.00,0.0,meteohub,2013-11-17 05:27:00,
2013-11-17 00:33:00,77.2,72.7,30.03,ESE,103,11.0,15.0,86,0.00,,,0.00,0.0,meteohub,2013-11-17 05:33:00,
2013-11-17 00:38:00,77.2,72.7,30.03,East,86,9.0,15.0,86,0.00,,,0.00,0.0,meteohub,2013-11-17 05:38:00,
2013-11-17 00:43:00,77.4,73.2,30.03,ESE,103,9.0,15.0,87,0.00,,,0.00,0.0,meteohub,2013-11-17 05:43:00,
2013-11-17 00:48:00,77.4,73.2,30.03,ESE,113,2.0,14.0,87,0.00,,,0.00,0.0,meteohub,2013-11-17 05:48:00,
2013-11-17 00:53:00,77.4,73.2,30.03,ESE,117,4.0,14.0,87,0.00,,,0.00,0.0,meteohub,2013-11-17 05:53:00,
2013-11-17 00:58:00,77.2,73.0,30.03,East,94,6.0,9.0,87,0.00,,,0.00,0.0,meteohub,2013-11-17 05:58:00,
2013-11-17 01:03:00,77.0,72.9,30.03,ESE,107,5.0,8.0,87,0.00,,,0.00,0.0,meteohub,2013-11-17 06:03:00,
2013-11-17 01:08:00,77.0,72.5,30.03,ESE,103,4.0,8.0,86,0.00,,,0.00,0.0,meteohub,2013-11-17 06:08:00,
2013-11-17 01:13:00,77.0,72.5,30.03,ESE,105,4.0,8.0,86,0.00,,,0.00,0.0,meteohub,2013-11-17 06:13:00,
2013-11-17 01:18:00,77.2,72.3,30.03,ESE,107,3.0,9.0,85,0.00,,,0.00,0.0,meteohub,2013-11-17 06:18:00,
2013-11-17 01:23:00,77.4,72.1,30.03,ESE,122,4.0,10.0,84,0.00,,,0.00,0.0,meteohub,2013-11-17 06:23:00,
2013-11-17 01:28:00,77.5,72.3,30.03,East,98,6.0,10.0,84,0.00,,,0.00,0.0,meteohub,2013-11-17 06:28:00,
2013-11-17 01:33:00,77.5,72.3,30.03,East,99,7.0,10.0,84,0.00,,,0.00,0.0,meteohub,2013-11-17 06:33:00,
2013-11-17 01:38:00,77.5,72.3,30.03,ESE,103,4.0,11.0,84,0.00,,,0.00,0.0,meteohub,2013-11-17 06:38:00,
2013-11-17 01:43:00,77.5,72.0,30.02,ESE,107,5.0,11.0,83,0.00,,,0.00,0.0,meteohub,2013-11-17 06:43:00,
2013-11-17 01:48:00,77.7,72.1,30.03,ESE,104,8.0,10.0,83,0.00,,,0.00,0.0,meteohub,2013-11-17 06:48:00,
2013-11-17 01:53:00,77.7,71.8,30.03,ESE,111,4.0,8.0,82,0.00,,,0.00,0.0,meteohub,2013-11-17 06:53:00,
2013-11-17 01:58:00,77.7,71.8,30.02,ESE,114,8.0,11.0,82,0.00,,,0.00,0.0,meteohub,2013-11-17 06:58:00,
2013-11-17 02:03:00,77.7,71.4,30.02,ENE,78,8.0,11.0,81,0.00,,,0.00,0.0,meteohub,2013-11-17 07:03:00,
2013-11-17 02:08:00,77.9,71.2,30.02,East,100,6.0,13.0,80,0.00,,,0.00,0.0,meteohub,2013-11-17 07:08:00,
2013-11-17 02:13:00,77.7,71.1,30.02,East,98,6.0,13.0,80,0.00,,,0.00,0.0,meteohub,2013-11-17 07:13:00,
2013-11-17 02:18:00,77.7,71.1,30.02,East,99,3.0,13.0,80,0.00,,,0.00,0.0,meteohub,2013-11-17 07:18:00,
2013-11-17 02:23:00,77.7,71.1,30.02,East,97,7.0,11.0,80,0.00,,,0.00,0.0,meteohub,2013-11-17 07:23:00,
2013-11-17 02:28:00,77.5,70.9,30.02,ESE,105,3.0,9.0,80,0.00,,,0.00,0.0,meteohub,2013-11-17 07:28:00,
2013-11-17 02:33:00,77.5,70.9,30.02,ESE,105,8.0,10.0,80,0.00,,,0.00,0.0,meteohub,2013-11-17 07:33:00,
2013-11-17 02:38:00,77.5,70.9,30.02,East,100,5.0,12.0,80,0.00,,,0.00,0.0,meteohub,2013-11-17 07:38:00,
2013-11-17 02:44:00,77.5,70.9,30.02,ESE,107,8.0,12.0,80,0.00,,,0.00,0.0,meteohub,2013-11-17 07:44:00,
2013-11-17 02:49:00,77.5,70.9,30.02,ESE,103,5.0,12.0,80,0.00,,,0.00,0.0,meteohub,2013-11-17 07:49:00,
2013-11-17 02:54:00,77.5,70.9,30.02,ESE,109,4.0,11.0,80,0.00,,,0.00,0.0,meteohub,2013-11-17 07:54:00,
2013-11-17 02:59:00,77.5,70.9,30.02,East,96,6.0,11.0,80,0.00,,,0.00,0.0,meteohub,2013-11-17 07:59:00,
2013-11-17 03:04:00,77.5,70.5,30.02,East,98,5.0,10.0,79,0.00,,,0.00,0.0,meteohub,2013-11-17 08:04:00,
2013-11-17 03:09:00,77.4,70.7,30.02,East,82,6.0,10.0,80,0.00,,,0.00,0.0,meteohub,2013-11-17 08:09:00,
2013-11-17 03:14:00,77.4,70.3,30.02,East,95,7.0,10.0,79,0.00,,,0.00,0.0,meteohub,2013-11-17 08:14:00,
2013-11-17 03:19:00,77.4,70.3,30.02,ESE,107,4.0,10.0,79,0.00,,,0.00,0.0,meteohub,2013-11-17 08:19:00,
2013-11-17 03:24:00,77.4,70.3,30.02,East,94,6.0,10.0,79,0.00,,,0.00,0.0,meteohub,2013-11-17 08:24:00,
2013-11-17 03:29:00,77.2,70.2,30.02,East,88,6.0,8.0,79,0.00,,,0.00,0.0,meteohub,2013-11-17 08:29:00,
2013-11-17 03:34:00,77.2,70.2,30.02,ESE,103,4.0,8.0,79,0.00,,,0.00,0.0,meteohub,2013-11-17 08:34:00,
2013-11-17 03:39:00,77.2,69.8,30.01,ESE,105,4.0,8.0,78,0.00,,,0.00,0.0,meteohub,2013-11-17 08:39:00,
2013-11-17 03:44:00,77.0,69.6,30.01,East,101,5.0,10.0,78,0.00,,,0.00,0.0,meteohub,2013-11-17 08:44:00,
2013-11-17 03:49:00,77.0,69.6,30.01,East,92,6.0,10.0,78,0.00,,,0.00,0.0,meteohub,2013-11-17 08:49:00,
2013-11-17 03:54:00,76.8,69.1,30.01,ESE,114,3.0,10.0,77,0.00,,,0.00,0.0,meteohub,2013-11-17 08:54:00,
2013-11-17 03:59:00,76.8,69.1,30.01,ESE,119,3.0,8.0,77,0.00,,,0.00,0.0,meteohub,2013-11-17 08:59:00,
2013-11-17 04:04:00,76.8,69.1,30.01,East,99,6.0,8.0,77,0.00,,,0.00,0.0,meteohub,2013-11-17 09:04:00,
2013-11-17 04:09:00,76.8,69.4,30.01,ESE,102,4.0,8.0,78,0.00,,,0.00,0.0,meteohub,2013-11-17 09:09:00,
2013-11-17 04:14:00,76.8,69.4,30.01,ESE,113,3.0,9.0,78,0.00,,,0.00,0.0,meteohub,2013-11-17 09:14:00,
2013-11-17 04:20:00,76.8,69.4,30.01,ESE,123,2.0,9.0,78,0.00,,,0.00,0.0,meteohub,2013-11-17 09:20:00,
2013-11-17 04:25:00,76.8,69.8,30.01,ESE,107,4.0,9.0,79,0.00,,,0.00,0.0,meteohub,2013-11-17 09:25:00,
2013-11-17 04:30:00,76.6,69.6,30.01,East,99,2.0,8.0,79,0.00,,,0.00,0.0,meteohub,2013-11-17 09:30:00,
2013-11-17 04:35:00,76.6,70.0,30.01,ESE,113,1.0,8.0,80,0.00,,,0.00,0.0,meteohub,2013-11-17 09:35:00,
2013-11-17 04:40:00,76.5,70.2,30.01,ESE,109,2.0,7.0,81,0.00,,,0.00,0.0,meteohub,2013-11-17 09:40:00,
2013-11-17 04:45:00,76.5,70.2,30.01,ESE,108,4.0,6.0,81,0.00,,,0.00,0.0,meteohub,2013-11-17 09:45:00,
2013-11-17 04:50:00,76.5,70.2,30.01,ESE,110,1.0,6.0,81,0.00,,,0.00,0.0,meteohub,2013-11-17 09:50:00,
2013-11-17 04:55:00,76.5,70.5,30.01,ESE,107,4.0,7.0,82,0.00,,,0.00,0.0,meteohub,2013-11-17 09:55:00,
2013-11-17 05:00:00,76.5,70.5,30.01,ESE,105,3.0,7.0,82,0.00,,,0.00,0.0,meteohub,2013-11-17 10:00:00,
2013-11-17 05:05:00,76.6,70.7,30.01,ESE,109,3.0,8.0,82,0.00,,,0.00,0.0,meteohub,2013-11-17 10:05:00,
2013-11-17 05:10:00,76.6,70.3,30.01,East,91,2.0,8.0,81,0.00,,,0.00,0.0,meteohub,2013-11-17 10:10:00,
2013-11-17 05:15:00,76.6,70.3,30.01,ESE,117,3.0,8.0,81,0.00,,,0.00,0.0,meteohub,2013-11-17 10:15:00,
2013-11-17 05:20:00,76.6,70.7,30.01,East,95,5.0,8.0,82,0.00,,,0.00,0.0,meteohub,2013-11-17 10:20:00,
2013-11-17 05:25:00,76.6,70.7,30.01,ESE,112,1.0,8.0,82,0.00,,,0.00,0.0,meteohub,2013-11-17 10:25:00,
2013-11-17 05:30:00,76.6,70.7,30.01,ESE,104,4.0,8.0,82,0.00,,,0.00,0.0,meteohub,2013-11-17 10:30:00,
2013-11-17 05:35:00,76.6,70.7,30.01,ESE,111,4.0,8.0,82,0.00,,,0.00,0.0,meteohub,2013-11-17 10:35:00,
2013-11-17 05:40:00,76.6,70.7,30.01,ESE,105,3.0,7.0,82,0.00,,,0.00,0.0,meteohub,2013-11-17 10:40:00,
2013-11-17 05:45:00,76.8,70.9,30.01,East,100,6.0,7.0,82,0.00,,,0.00,0.0,meteohub,2013-11-17 10:45:00,
2013-11-17 05:50:00,76.8,70.9,30.01,ESE,121,3.0,9.0,82,0.00,,,0.00,0.0,meteohub,2013-11-17 10:50:00,
2013-11-17 05:55:00,76.8,70.9,30.01,East,100,5.0,9.0,82,0.00,,,0.00,0.0,meteohub,2013-11-17 10:55:00,
2013-11-17 06:00:00,77.0,70.7,30.01,ESE,107,4.0,9.0,81,0.00,,,0.00,0.0,meteohub,2013-11-17 11:00:00,
2013-11-17 06:05:00,77.0,70.7,30.02,ESE,114,3.0,9.0,81,0.00,,,0.00,0.0,meteohub,2013-11-17 11:05:00,
2013-11-17 06:10:00,77.0,71.1,30.02,ESE,111,7.0,8.0,82,0.00,,,0.00,0.0,meteohub,2013-11-17 11:10:00,
2013-11-17 06:15:00,77.0,71.1,30.02,East,93,6.0,7.0,82,0.00,,,0.00,0.0,meteohub,2013-11-17 11:15:00,
2013-11-17 06:20:00,76.8,70.9,30.02,East,98,5.0,7.0,82,0.00,,,0.00,0.0,meteohub,2013-11-17 11:20:00,
2013-11-17 06:25:00,76.8,70.9,30.02,ESE,108,5.0,7.0,82,0.00,,,0.00,0.0,meteohub,2013-11-17 11:25:00,
2013-11-17 06:30:00,76.8,70.9,30.02,ESE,108,3.0,8.0,82,0.00,,,0.00,0.0,meteohub,2013-11-17 11:30:00,
2013-11-17 06:35:00,76.8,70.9,30.02,ESE,108,5.0,8.0,82,0.00,,,0.00,0.0,meteohub,2013-11-17 11:35:00,
2013-11-17 06:40:00,76.8,70.9,30.02,ESE,102,4.0,8.0,82,0.00,,,0.00,0.0,meteohub,2013-11-17 11:40:00,
2013-11-17 06:45:00,76.8,70.9,30.03,East,87,1.0,8.0,82,0.00,,,0.00,5.0,meteohub,2013-11-17 11:45:00,
2013-11-17 06:50:00,76.8,70.9,30.03,East,91,5.0,7.0,82,0.00,,,0.00,7.0,meteohub,2013-11-17 11:50:00,
2013-11-17 06:55:00,76.8,70.9,30.03,ESE,103,3.0,8.0,82,0.00,,,0.00,9.0,meteohub,2013-11-17 11:55:00,
2013-11-17 07:00:00,76.8,70.9,30.03,East,86,3.0,8.0,82,0.00,,,0.00,16.0,meteohub,2013-11-17 12:00:00,
2013-11-17 07:05:00,76.8,70.9,30.03,East,88,5.0,8.0,82,0.00,,,0.00,21.0,meteohub,2013-11-17 12:05:00,
2013-11-17 07:10:00,76.8,70.9,30.03,East,97,5.0,8.0,82,0.00,,,0.00,28.0,meteohub,2013-11-17 12:10:00,
2013-11-17 07:15:00,77.0,71.1,30.03,ESE,102,4.0,8.0,82,0.00,,,0.00,30.0,meteohub,2013-11-17 12:15:00,
2013-11-17 07:20:00,77.2,71.2,30.03,East,99,6.0,8.0,82,0.00,,,0.00,46.0,meteohub,2013-11-17 12:20:00,
2013-11-17 07:25:00,77.4,71.4,30.04,ESE,105,4.0,8.0,82,0.00,,,0.00,42.0,meteohub,2013-11-17 12:25:00,
2013-11-17 07:30:00,77.4,71.1,30.04,ESE,115,5.0,8.0,81,0.00,,,0.00,39.0,meteohub,2013-11-17 12:30:00,
2013-11-17 07:35:00,77.5,71.2,30.04,East,88,6.0,9.0,81,0.00,,,0.00,56.0,meteohub,2013-11-17 12:35:00,
2013-11-17 07:40:00,77.7,71.4,30.04,East,94,6.0,9.0,81,0.00,,,0.00,97.0,meteohub,2013-11-17 12:40:00,
2013-11-17 07:45:00,78.1,71.8,30.04,ESE,109,5.0,9.0,81,0.00,,,0.00,104.0,meteohub,2013-11-17 12:45:00,
2013-11-17 07:50:00,78.3,71.6,30.04,East,98,7.0,9.0,80,0.00,,,0.00,81.0,meteohub,2013-11-17 12:50:00,
2013-11-17 07:55:00,78.4,71.8,30.04,ESE,119,4.0,9.0,80,0.00,,,0.00,69.0,meteohub,2013-11-17 12:55:00,
2013-11-17 08:01:00,78.4,71.8,30.04,ESE,106,9.0,9.0,80,0.00,,,0.00,102.0,meteohub,2013-11-17 13:01:00,
2013-11-17 08:06:00,78.6,72.0,30.04,ESE,120,5.0,10.0,80,0.00,,,0.00,102.0,meteohub,2013-11-17 13:06:00,
2013-11-17 08:11:00,79.0,72.0,30.04,SE,128,7.0,10.0,79,0.00,,,0.00,105.0,meteohub,2013-11-17 13:11:00,
2013-11-17 08:16:00,79.2,72.1,30.04,SE,134,6.0,10.0,79,0.00,,,0.00,95.0,meteohub,2013-11-17 13:16:00,
2013-11-17 08:21:00,79.2,71.8,30.05,ESE,104,9.0,11.0,78,0.00,,,0.00,105.0,meteohub,2013-11-17 13:21:00,
2013-11-17 08:26:00,79.2,71.8,30.05,ESE,121,7.0,11.0,78,0.00,,,0.00,148.0,meteohub,2013-11-17 13:26:00,
2013-11-17 08:31:00,79.5,72.1,30.05,ESE,106,10.0,13.0,78,0.00,,,0.00,374.0,meteohub,2013-11-17 13:31:00,
2013-11-17 08:36:00,80.2,72.3,30.05,ESE,114,9.0,13.0,77,0.00,,,0.00,345.0,meteohub,2013-11-17 13:36:00,
2013-11-17 08:41:00,80.2,72.0,30.05,ESE,123,9.0,14.0,76,0.00,,,0.00,353.0,meteohub,2013-11-17 13:41:00,
2013-11-17 08:46:00,80.6,72.0,30.05,ESE,113,9.0,14.0,75,0.00,,,0.00,343.0,meteohub,2013-11-17 13:46:00,
2013-11-17 08:51:00,80.8,71.8,30.05,SE,134,10.0,17.0,74,0.00,,,0.00,223.0,meteohub,2013-11-17 13:51:00,
2013-11-17 08:56:00,80.4,71.8,30.06,East,100,9.0,18.0,75,0.00,,,0.00,408.0,meteohub,2013-11-17 13:56:00,
2013-11-17 09:01:00,80.6,71.6,30.06,East,99,10.0,18.0,74,0.00,,,0.00,225.0,meteohub,2013-11-17 14:01:00,
2013-11-17 09:06:00,80.6,71.6,30.06,East,87,8.0,18.0,74,0.00,,,0.00,127.0,meteohub,2013-11-17 14:06:00,
2013-11-17 09:11:00,80.8,71.8,30.06,East,101,8.0,15.0,74,0.00,,,0.00,121.0,meteohub,2013-11-17 14:11:00,
2013-11-17 09:16:00,80.4,71.4,30.06,ESE,103,13.0,15.0,74,0.00,,,0.00,255.0,meteohub,2013-11-17 14:16:00,
2013-11-17 09:21:00,81.0,72.0,30.06,SE,132,8.0,17.0,74,0.00,,,0.00,371.0,meteohub,2013-11-17 14:21:00,
2013-11-17 09:26:00,81.1,72.1,30.06,East,97,13.0,17.0,74,0.00,,,0.00,155.0,meteohub,2013-11-17 14:26:00,
2013-11-17 09:31:00,81.7,72.1,30.06,ESE,117,7.0,16.0,73,0.00,,,0.00,489.0,meteohub,2013-11-17 14:31:00,
2013-11-17 09:36:00,81.9,72.0,30.06,ESE,105,11.0,16.0,72,0.00,,,0.00,520.0,meteohub,2013-11-17 14:36:00,
2013-11-17 09:41:00,82.0,72.1,30.06,East,85,8.0,15.0,72,0.00,,,0.00,568.0,meteohub,2013-11-17 14:41:00,
2013-11-17 09:46:00,82.0,71.8,30.06,ESE,117,13.0,15.0,71,0.00,,,0.00,557.0,meteohub,2013-11-17 14:46:00,
2013-11-17 09:52:00,81.7,71.8,-100.00,ESE,104,7.0,15.0,72,0.00,,,0.00,144.0,meteohub,2013-11-17 14:52:00,
2013-11-17 09:57:00,81.9,72.3,30.07,SE,133,10.0,16.0,73,0.00,,,0.00,144.0,meteohub,2013-11-17 14:57:00,
2013-11-17 10:02:00,82.0,71.8,30.07,SE,134,7.0,16.0,71,0.00,,,0.00,243.0,meteohub,2013-11-17 15:02:00,
2013-11-17 10:07:00,82.0,71.8,30.07,East,101,13.0,17.0,71,0.00,,,0.00,635.0,meteohub,2013-11-17 15:07:00,
2013-11-17 10:12:00,82.0,71.8,30.07,ESE,118,10.0,17.0,71,0.00,,,0.00,156.0,meteohub,2013-11-17 15:12:00,
2013-11-17 10:17:00,81.9,72.3,30.07,East,100,14.0,17.0,73,0.00,,,0.00,691.0,meteohub,2013-11-17 15:17:00,
2013-11-17 10:23:00,82.4,72.5,30.06,SE,128,9.0,16.0,72,0.00,,,0.00,373.0,meteohub,2013-11-17 15:23:00,
2013-11-17 10:28:00,81.1,72.1,30.07,ESE,104,10.0,16.0,74,0.00,,,0.00,181.0,meteohub,2013-11-17 15:28:00,
2013-11-17 10:33:00,81.5,72.9,30.06,ESE,113,14.0,17.0,75,0.00,,,0.00,744.0,meteohub,2013-11-17 15:33:00,
2013-11-17 10:38:00,82.8,73.2,30.06,ESE,123,14.0,17.0,73,0.00,,,0.00,751.0,meteohub,2013-11-17 15:38:00,
2013-11-17 10:43:00,83.1,72.7,30.06,ESE,108,12.0,14.0,71,0.00,,,0.00,722.0,meteohub,2013-11-17 15:43:00,
2013-11-17 10:48:00,83.1,73.2,30.06,SE,129,8.0,16.0,72,0.00,,,0.00,751.0,meteohub,2013-11-17 15:48:00,
2013-11-17 10:53:00,83.5,73.0,30.06,ESE,109,11.0,16.0,71,0.00,,,0.00,779.0,meteohub,2013-11-17 15:53:00,
2013-11-17 10:58:00,83.1,73.2,30.06,East,96,11.0,16.0,72,0.00,,,0.00,207.0,meteohub,2013-11-17 15:58:00,
2013-11-17 11:03:00,82.6,73.4,30.06,ESE,105,14.0,18.0,74,0.00,,,0.00,204.0,meteohub,2013-11-17 16:03:00,
2013-11-17 11:08:00,82.2,73.6,30.05,ESE,107,7.0,18.0,75,0.00,,,0.00,206.0,meteohub,2013-11-17 16:08:00,
2013-11-17 11:13:00,82.2,73.6,30.05,East,95,10.0,18.0,75,0.00,,,0.00,779.0,meteohub,2013-11-17 16:13:00,
2013-11-17 11:18:00,82.2,73.0,30.05,ESE,115,9.0,16.0,74,0.00,,,0.00,327.0,meteohub,2013-11-17 16:18:00,
2013-11-17 11:23:00,82.2,73.0,30.05,East,89,9.0,16.0,74,0.00,,,0.00,772.0,meteohub,2013-11-17 16:23:00,
2013-11-17 11:28:00,82.2,73.0,30.05,SE,142,10.0,16.0,74,0.00,,,0.00,796.0,meteohub,2013-11-17 16:28:00,
2013-11-17 11:33:00,82.9,74.1,30.05,ESE,117,11.0,16.0,75,0.00,,,0.00,758.0,meteohub,2013-11-17 16:33:00,
2013-11-17 11:38:00,83.7,73.6,30.05,ESE,107,9.0,15.0,72,0.00,,,0.00,738.0,meteohub,2013-11-17 16:38:00,
2013-11-17 11:43:00,82.8,73.2,30.05,ESE,107,12.0,14.0,73,0.00,,,0.00,227.0,meteohub,2013-11-17 16:43:00,
2013-11-17 11:48:00,81.7,73.0,30.04,East,101,11.0,16.0,75,0.00,,,0.00,178.0,meteohub,2013-11-17 16:48:00,
2013-11-17 11:53:00,81.3,72.7,30.04,ESE,120,10.0,16.0,75,0.00,,,0.00,343.0,meteohub,2013-11-17 16:53:00,
2013-11-17 11:58:00,81.9,72.7,30.04,ESE,110,12.0,17.0,74,0.00,,,0.00,265.0,meteohub,2013-11-17 16:58:00,
2013-11-17 12:03:00,81.9,73.6,30.04,ESE,107,12.0,17.0,76,0.00,,,0.00,251.0,meteohub,2013-11-17 17:03:00,
2013-11-17 12:08:00,82.6,73.4,30.04,SE,124,9.0,17.0,74,0.00,,,0.00,763.0,meteohub,2013-11-17 17:08:00,
2013-11-17 12:13:00,82.0,73.4,30.04,SE,140,12.0,16.0,75,0.00,,,0.00,325.0,meteohub,2013-11-17 17:13:00,
2013-11-17 12:18:00,81.9,73.2,30.04,SSE,158,5.0,16.0,75,0.00,,,0.00,345.0,meteohub,2013-11-17 17:18:00,
2013-11-17 12:23:00,82.6,73.8,30.03,ESE,106,14.0,16.0,75,0.00,,,0.00,524.0,meteohub,2013-11-17 17:23:00,
2013-11-17 12:28:00,81.9,73.2,30.03,SE,126,11.0,19.0,75,0.00,,,0.00,236.0,meteohub,2013-11-17 17:28:00,
2013-11-17 12:33:00,81.3,73.0,30.03,SE,133,6.0,19.0,76,0.00,,,0.00,276.0,meteohub,2013-11-17 17:33:00,
2013-11-17 12:38:00,82.2,73.6,30.03,SSE,163,11.0,19.0,75,0.00,,,0.00,809.0,meteohub,2013-11-17 17:38:00,
2013-11-17 12:43:00,82.4,73.8,30.02,SE,130,7.0,16.0,75,0.00,,,0.00,738.0,meteohub,2013-11-17 17:43:00,
2013-11-17 12:48:00,82.9,73.4,30.02,SE,129,10.0,15.0,73,0.00,,,0.00,835.0,meteohub,2013-11-17 17:48:00,
2013-11-17 12:53:00,82.8,73.6,30.02,ESE,107,9.0,15.0,74,0.00,,,0.00,452.0,meteohub,2013-11-17 17:53:00,
2013-11-17 12:58:00,82.8,73.6,30.02,East,92,7.0,15.0,74,0.00,,,0.00,805.0,meteohub,2013-11-17 17:58:00,
2013-11-17 13:03:00,83.5,73.6,30.02,SE,137,9.0,14.0,72,0.00,,,0.00,766.0,meteohub,2013-11-17 18:03:00,
2013-11-17 13:08:00,82.9,72.5,30.02,SE,130,8.0,14.0,71,0.00,,,0.00,279.0,meteohub,2013-11-17 18:08:00,
2013-11-17 13:13:00,83.1,73.2,30.02,SE,132,8.0,14.0,72,0.00,,,0.00,809.0,meteohub,2013-11-17 18:13:00,
2013-11-17 13:18:00,83.3,72.9,30.01,ESE,103,8.0,15.0,71,0.00,,,0.00,294.0,meteohub,2013-11-17 18:18:00,
2013-11-17 13:23:00,82.9,73.0,30.02,SE,139,7.0,15.0,72,0.00,,,0.00,207.0,meteohub,2013-11-17 18:23:00,
2013-11-17 13:28:00,82.9,72.5,30.01,ESE,123,8.0,15.0,71,0.00,,,0.00,700.0,meteohub,2013-11-17 18:28:00,
2013-11-17 13:33:00,83.5,73.6,30.01,SE,132,5.0,14.0,72,0.00,,,0.00,731.0,meteohub,2013-11-17 18:33:00,
2013-11-17 13:38:00,83.5,72.3,30.01,ESE,117,11.0,14.0,69,0.00,,,0.00,775.0,meteohub,2013-11-17 18:38:00,
2013-11-17 13:43:00,82.8,72.3,30.01,SE,130,7.0,14.0,71,0.00,,,0.00,239.0,meteohub,2013-11-17 18:43:00,
2013-11-17 13:48:00,82.0,71.8,30.01,SE,138,9.0,16.0,71,0.00,,,0.00,255.0,meteohub,2013-11-17 18:48:00,
2013-11-17 13:53:00,82.2,72.0,30.01,SSE,148,11.0,16.0,71,0.00,,,0.00,250.0,meteohub,2013-11-17 18:53:00,
2013-11-17 13:58:00,81.9,72.0,30.01,SSE,153,6.0,16.0,72,0.00,,,0.00,179.0,meteohub,2013-11-17 18:58:00,
2013-11-17 14:03:00,81.7,72.1,30.01,SSE,159,11.0,15.0,73,0.00,,,0.00,163.0,meteohub,2013-11-17 19:03:00,
2013-11-17 14:08:00,81.3,71.1,30.00,SE,141,9.0,15.0,71,0.00,,,0.00,139.0,meteohub,2013-11-17 19:08:00,
2013-11-17 14:14:00,81.3,71.1,30.00,SSE,162,4.0,13.0,71,0.00,,,0.00,448.0,meteohub,2013-11-17 19:14:00,
2013-11-17 14:19:00,82.6,71.4,30.00,ESE,105,8.0,12.0,69,0.00,,,0.00,533.0,meteohub,2013-11-17 19:19:00,
2013-11-17 14:24:00,83.5,72.7,30.00,SSE,153,6.0,12.0,70,0.00,,,0.00,568.0,meteohub,2013-11-17 19:24:00,
2013-11-17 14:29:00,83.5,72.3,30.00,SE,130,5.0,12.0,69,0.00,,,0.00,571.0,meteohub,2013-11-17 19:29:00,
2013-11-17 14:34:00,82.9,72.1,30.00,ESE,111,5.0,12.0,70,0.00,,,0.00,496.0,meteohub,2013-11-17 19:34:00,
2013-11-17 14:39:00,83.3,72.5,30.00,ESE,119,5.0,13.0,70,0.00,,,0.00,485.0,meteohub,2013-11-17 19:39:00,
2013-11-17 14:44:00,82.2,72.0,29.99,SSE,159,6.0,13.0,71,0.00,,,0.00,128.0,meteohub,2013-11-17 19:44:00,
2013-11-17 14:49:00,81.3,71.8,30.00,ESE,120,12.0,13.0,73,0.00,,,0.00,72.0,meteohub,2013-11-17 19:49:00,
2013-11-17 14:54:00,80.4,71.4,30.00,ESE,104,9.0,15.0,74,0.00,,,0.00,49.0,meteohub,2013-11-17 19:54:00,
2013-11-17 14:59:00,80.1,71.8,30.00,ESE,118,10.0,15.0,76,0.00,,,0.00,72.0,meteohub,2013-11-17 19:59:00,
2013-11-17 15:04:00,79.7,71.4,29.99,SSE,153,7.0,15.0,76,0.00,,,0.00,98.0,meteohub,2013-11-17 20:04:00,
2013-11-17 15:09:00,80.1,71.8,29.99,South,169,9.0,15.0,76,0.00,,,0.00,113.0,meteohub,2013-11-17 20:09:00,
2013-11-17 15:14:00,80.2,70.9,29.99,SE,126,6.0,13.0,73,0.00,,,0.00,144.0,meteohub,2013-11-17 20:14:00,
2013-11-17 15:19:00,81.1,70.3,29.99,SSE,148,5.0,12.0,70,0.00,,,0.00,385.0,meteohub,2013-11-17 20:19:00,
2013-11-17 15:24:00,81.7,70.5,29.99,ESE,115,10.0,14.0,69,0.00,,,0.00,327.0,meteohub,2013-11-17 20:24:00,
2013-11-17 15:29:00,81.7,70.5,29.99,SE,128,5.0,14.0,69,0.00,,,0.00,320.0,meteohub,2013-11-17 20:29:00,
2013-11-17 15:34:00,81.7,70.2,30.00,SE,139,8.0,14.0,68,0.00,,,0.00,246.0,meteohub,2013-11-17 20:34:00,
2013-11-17 15:39:00,81.7,70.9,30.00,SSE,152,4.0,14.0,70,0.00,,,0.00,236.0,meteohub,2013-11-17 20:39:00,
2013-11-17 15:44:00,81.9,71.1,29.99,SE,124,8.0,14.0,70,0.00,,,0.00,279.0,meteohub,2013-11-17 20:44:00,
2013-11-17 15:49:00,81.9,70.7,29.99,SE,133,8.0,12.0,69,0.00,,,0.00,257.0,meteohub,2013-11-17 20:49:00,
2013-11-17 15:54:00,81.9,70.7,29.99,SE,146,5.0,16.0,69,0.00,,,0.00,230.0,meteohub,2013-11-17 20:54:00,
2013-11-17 15:59:00,81.9,70.7,29.99,SE,128,4.0,16.0,69,0.00,,,0.00,213.0,meteohub,2013-11-17 20:59:00,
2013-11-17 16:04:00,81.7,70.9,29.99,SSE,160,5.0,16.0,70,0.00,,,0.00,148.0,meteohub,2013-11-17 21:04:00,
2013-11-17 16:09:00,81.1,70.3,29.99,South,171,4.0,12.0,70,0.00,,,0.00,70.0,meteohub,2013-11-17 21:09:00,
2013-11-17 16:14:00,81.0,70.7,30.00,ESE,121,9.0,12.0,71,0.00,,,0.00,98.0,meteohub,2013-11-17 21:14:00,
2013-11-17 16:19:00,80.8,70.5,30.00,SE,133,9.0,12.0,71,0.00,,,0.00,76.0,meteohub,2013-11-17 21:19:00,
2013-11-17 16:24:00,80.8,70.2,30.00,SSE,155,9.0,13.0,70,0.00,,,0.00,81.0,meteohub,2013-11-17 21:24:00,
2013-11-17 16:29:00,80.8,70.5,30.00,ESE,114,11.0,13.0,71,0.00,,,0.00,44.0,meteohub,2013-11-17 21:29:00,
2013-11-17 16:34:00,80.6,70.3,29.99,SE,127,6.0,12.0,71,0.00,,,0.00,100.0,meteohub,2013-11-17 21:34:00,
2013-11-17 16:39:00,80.8,70.5,30.00,South,176,5.0,11.0,71,0.00,,,0.00,83.0,meteohub,2013-11-17 21:39:00,
2013-11-17 16:44:00,80.8,70.9,29.99,SE,144,5.0,12.0,72,0.00,,,0.00,69.0,meteohub,2013-11-17 21:44:00,
2013-11-17 16:49:00,80.4,70.5,29.99,SE,126,7.0,12.0,72,0.00,,,0.00,56.0,meteohub,2013-11-17 21:49:00,
2013-11-17 16:54:00,80.4,70.5,29.99,SE,136,8.0,12.0,72,0.00,,,0.00,44.0,meteohub,2013-11-17 21:54:00,
2013-11-17 16:59:00,80.2,70.9,29.99,SSE,155,6.0,12.0,73,0.00,,,0.00,33.0,meteohub,2013-11-17 21:59:00,
2013-11-17 17:04:00,80.1,70.7,30.00,ESE,121,4.0,12.0,73,0.00,,,0.00,25.0,meteohub,2013-11-17 22:04:00,
2013-11-17 17:09:00,79.9,70.9,30.00,SE,144,4.0,12.0,74,0.00,,,0.00,19.0,meteohub,2013-11-17 22:09:00,
2013-11-17 17:14:00,79.7,70.7,30.00,SE,128,3.0,8.0,74,0.00,,,0.00,14.0,meteohub,2013-11-17 22:14:00,
2013-11-17 17:20:00,79.5,70.9,30.00,ESE,117,4.0,8.0,75,0.00,,,0.00,11.0,meteohub,2013-11-17 22:20:00,
2013-11-17 17:25:00,79.3,70.7,30.00,ESE,114,3.0,8.0,75,0.00,,,0.00,7.0,meteohub,2013-11-17 22:25:00,
2013-11-17 17:30:00,79.2,70.5,30.00,SE,126,6.0,8.0,75,0.00,,,0.00,5.0,meteohub,2013-11-17 22:30:00,
2013-11-17 17:35:00,79.2,70.9,30.00,SE,130,5.0,10.0,76,0.00,,,0.00,0.0,meteohub,2013-11-17 22:35:00,
2013-11-17 17:40:00,79.0,70.7,30.00,SE,141,3.0,10.0,76,0.00,,,0.00,0.0,meteohub,2013-11-17 22:40:00,
2013-11-17 17:45:00,78.8,71.1,30.01,SE,128,3.0,10.0,77,0.00,,,0.00,0.0,meteohub,2013-11-17 22:45:00,
2013-11-17 17:50:00,78.6,70.9,30.01,SE,146,3.0,8.0,77,0.00,,,0.00,0.0,meteohub,2013-11-17 22:50:00,
2013-11-17 17:55:00,78.4,70.7,30.01,SE,124,5.0,8.0,77,0.00,,,0.00,0.0,meteohub,2013-11-17 22:55:00,
2013-11-17 18:00:00,78.4,71.1,30.01,SE,133,4.0,8.0,78,0.00,,,0.00,0.0,meteohub,2013-11-17 23:00:00,
2013-11-17 18:05:00,78.4,71.1,30.01,ESE,121,3.0,8.0,78,0.00,,,0.00,0.0,meteohub,2013-11-17 23:05:00,
2013-11-17 18:10:00,78.3,70.9,30.01,SE,146,2.0,8.0,78,0.00,,,0.00,0.0,meteohub,2013-11-17 23:10:00,
2013-11-17 18:15:00,78.3,70.9,30.01,SE,142,1.0,7.0,78,0.00,,,0.00,0.0,meteohub,2013-11-17 23:15:00,
2013-11-17 18:20:00,78.1,70.7,30.01,SE,131,2.0,6.0,78,0.00,,,0.00,0.0,meteohub,2013-11-17 23:20:00,
2013-11-17 18:25:00,78.1,71.1,30.01,SE,127,2.0,4.0,79,0.00,,,0.00,0.0,meteohub,2013-11-17 23:25:00,
2013-11-17 18:30:00,78.1,71.1,30.01,SE,127,0.0,4.0,79,0.00,,,0.00,0.0,meteohub,2013-11-17 23:30:00,
2013-11-17 18:35:00,78.1,71.4,30.01,SE,126,0.0,4.0,80,0.00,,,0.00,0.0,meteohub,2013-11-17 23:35:00,
2013-11-17 18:40:00,77.7,71.1,30.01,SE,126,0.0,4.0,80,0.00,,,0.00,0.0,meteohub,2013-11-17 23:40:00,
2013-11-17 18:45:00,77.7,71.1,30.01,SE,126,0.0,2.0,80,0.00,,,0.00,0.0,meteohub,2013-11-17 23:45:00,
2013-11-17 18:50:00,77.5,70.9,30.01,SE,126,0.0,2.0,80,0.00,,,0.00,0.0,meteohub,2013-11-17 23:50:00,
2013-11-17 18:55:00,77.5,71.2,30.01,SE,127,0.0,2.0,81,0.00,,,0.00,0.0,meteohub,2013-11-17 23:55:00,
2013-11-17 19:00:00,77.4,71.1,30.01,SE,128,1.0,2.0,81,0.00,,,0.00,0.0,meteohub,2013-11-18 00:00:00,
2013-11-17 19:05:00,77.2,70.9,30.01,SE,143,0.0,3.0,81,0.00,,,0.00,0.0,meteohub,2013-11-18 00:05:00,
2013-11-17 19:10:00,77.2,71.2,30.01,SE,141,1.0,4.0,82,0.00,,,0.00,0.0,meteohub,2013-11-18 00:10:00,
2013-11-17 19:15:00,77.2,71.2,30.02,SE,134,0.0,4.0,82,0.00,,,0.00,0.0,meteohub,2013-11-18 00:15:00,
2013-11-17 19:20:00,77.2,71.2,30.02,SE,134,0.0,4.0,82,0.00,,,0.00,0.0,meteohub,2013-11-18 00:20:00,
2013-11-17 19:25:00,77.0,71.1,30.02,SE,134,0.0,4.0,82,0.00,,,0.00,0.0,meteohub,2013-11-18 00:25:00,
2013-11-17 19:30:00,77.0,71.1,30.01,SE,134,0.0,1.0,82,0.00,,,0.00,0.0,meteohub,2013-11-18 00:30:00,
2013-11-17 19:35:00,76.8,70.9,30.02,SE,134,0.0,0.0,82,0.00,,,0.00,0.0,meteohub,2013-11-18 00:35:00,
2013-11-17 19:40:00,76.8,70.9,30.02,SE,134,0.0,2.0,82,0.00,,,0.00,0.0,meteohub,2013-11-18 00:40:00,
2013-11-17 19:45:00,76.6,70.7,30.02,SE,134,0.0,2.0,82,0.00,,,0.00,0.0,meteohub,2013-11-18 00:45:00,
2013-11-17 19:50:00,76.6,70.7,30.02,SE,134,0.0,2.0,82,0.00,,,0.00,0.0,meteohub,2013-11-18 00:50:00,
2013-11-17 19:55:00,76.6,70.7,30.02,SE,134,0.0,1.0,82,0.00,,,0.00,0.0,meteohub,2013-11-18 00:55:00,
2013-11-17 20:00:00,76.6,70.7,30.03,SE,134,1.0,1.0,82,0.00,,,0.00,0.0,meteohub,2013-11-18 01:00:00,
2013-11-17 20:05:00,76.6,70.7,30.03,SE,134,1.0,1.0,82,0.00,,,0.00,0.0,meteohub,2013-11-18 01:05:00,
2013-11-17 20:10:00,76.6,70.7,30.03,ESE,120,1.0,2.0,82,0.00,,,0.00,0.0,meteohub,2013-11-18 01:10:00,
2013-11-17 20:15:00,76.5,70.5,30.03,ESE,119,0.0,2.0,82,0.00,,,0.00,0.0,meteohub,2013-11-18 01:15:00,
2013-11-17 20:20:00,76.5,70.9,30.03,ESE,119,1.0,2.0,83,0.00,,,0.00,0.0,meteohub,2013-11-18 01:20:00,
2013-11-17 20:25:00,76.5,70.9,30.03,ESE,119,0.0,2.0,83,0.00,,,0.00,0.0,meteohub,2013-11-18 01:25:00,
2013-11-17 20:30:00,76.5,70.9,30.04,ESE,119,0.0,2.0,83,0.00,,,0.00,0.0,meteohub,2013-11-18 01:30:00,
2013-11-17 20:35:00,76.3,70.7,30.04,ESE,119,0.0,1.0,83,0.00,,,0.00,0.0,meteohub,2013-11-18 01:35:00,
2013-11-17 20:40:00,76.3,70.7,30.04,ESE,119,0.0,0.0,83,0.00,,,0.00,0.0,meteohub,2013-11-18 01:40:00,
2013-11-17 20:45:00,76.1,70.5,30.04,ESE,119,0.0,0.0,83,0.00,,,0.00,0.0,meteohub,2013-11-18 01:45:00,
2013-11-17 20:50:00,75.9,70.7,30.04,ESE,119,0.0,0.0,84,0.00,,,0.00,0.0,meteohub,2013-11-18 01:50:00,
2013-11-17 20:56:00,75.7,70.5,30.04,ESE,119,1.0,2.0,84,0.00,,,0.00,0.0,meteohub,2013-11-18 01:56:00,
2013-11-17 21:01:00,75.7,70.9,30.04,NE,43,2.0,2.0,85,0.00,,,0.00,0.0,meteohub,2013-11-18 02:01:00,
2013-11-17 21:05:00,75.6,71.1,30.04,NE,39,2.0,2.0,86,0.00,,,0.00,0.0,meteohub,2013-11-18 02:05:00,
2013-11-17 21:11:00,75.4,70.9,30.04,NE,39,0.0,3.0,86,0.00,,,0.00,0.0,meteohub,2013-11-18 02:11:00,
2013-11-17 21:16:00,75.4,70.9,30.04,NE,40,0.0,3.0,86,0.00,,,0.00,0.0,meteohub,2013-11-18 02:16:00,
2013-11-17 21:21:00,75.2,70.7,30.04,NE,40,0.0,3.0,86,0.00,,,0.00,0.0,meteohub,2013-11-18 02:21:00,
2013-11-17 21:26:00,75.0,70.9,30.04,NE,40,0.0,2.0,87,0.00,,,0.00,0.0,meteohub,2013-11-18 02:26:00,
2013-11-17 21:31:00,75.0,70.9,30.04,NE,39,0.0,2.0,87,0.00,,,0.00,0.0,meteohub,2013-11-18 02:31:00,
2013-11-17 21:36:00,74.8,70.7,30.04,NE,40,0.0,0.0,87,0.00,,,0.00,0.0,meteohub,2013-11-18 02:36:00,
2013-11-17 21:41:00,74.8,70.7,30.04,NE,40,0.0,0.0,87,0.00,,,0.00,0.0,meteohub,2013-11-18 02:41:00,
2013-11-17 21:46:00,74.7,70.9,30.04,NE,40,2.0,0.0,88,0.00,,,0.00,0.0,meteohub,2013-11-18 02:46:00,
2013-11-17 21:51:00,74.7,70.9,30.04,NE,40,0.0,2.0,88,0.00,,,0.00,0.0,meteohub,2013-11-18 02:51:00,
2013-11-17 21:56:00,74.7,70.9,30.04,NE,40,0.0,2.0,88,0.00,,,0.00,0.0,meteohub,2013-11-18 02:56:00,
2013-11-17 22:01:00,74.5,70.7,30.04,NE,40,0.0,2.0,88,0.00,,,0.00,0.0,meteohub,2013-11-18 03:01:00,
2013-11-17 22:06:00,74.5,70.7,30.04,NE,40,0.0,1.0,88,0.00,,,0.00,0.0,meteohub,2013-11-18 03:06:00,
2013-11-17 22:11:00,74.3,70.5,30.04,NE,40,0.0,1.0,88,0.00,,,0.00,0.0,meteohub,2013-11-18 03:11:00,
2013-11-17 22:16:00,74.1,70.3,30.04,NE,40,0.0,1.0,88,0.00,,,0.00,0.0,meteohub,2013-11-18 03:16:00,
2013-11-17 22:21:00,74.1,70.7,30.04,NE,40,0.0,1.0,89,0.00,,,0.00,0.0,meteohub,2013-11-18 03:21:00,
2013-11-17 22:26:00,73.9,70.5,30.04,NE,40,0.0,0.0,89,0.00,,,0.00,0.0,meteohub,2013-11-18 03:26:00,
2013-11-17 22:31:00,73.9,70.5,30.04,NE,40,0.0,0.0,89,0.00,,,0.00,0.0,meteohub,2013-11-18 03:31:00,
2013-11-17 22:36:00,73.9,70.5,30.04,NE,40,0.0,0.0,89,0.00,,,0.00,0.0,meteohub,2013-11-18 03:36:00,
2013-11-17 22:41:00,73.9,70.5,30.04,NE,40,0.0,2.0,89,0.00,,,0.00,0.0,meteohub,2013-11-18 03:41:00,
2013-11-17 22:46:00,73.8,70.3,30.04,NE,40,0.0,2.0,89,0.00,,,0.00,0.0,meteohub,2013-11-18 03:46:00,
2013-11-17 22:51:00,73.8,70.7,30.04,NE,40,0.0,2.0,90,0.00,,,0.00,0.0,meteohub,2013-11-18 03:51:00,
2013-11-17 22:56:00,73.8,70.7,30.04,NE,40,0.0,1.0,90,0.00,,,0.00,0.0,meteohub,2013-11-18 03:56:00,
2013-11-17 23:01:00,73.6,70.5,30.03,NE,40,0.0,0.0,90,0.00,,,0.00,0.0,meteohub,2013-11-18 04:01:00,
2013-11-17 23:06:00,73.6,70.5,30.03,NE,40,0.0,0.0,90,0.00,,,0.00,0.0,meteohub,2013-11-18 04:06:00,
2013-11-17 23:11:00,73.2,70.2,30.03,NE,40,0.0,0.0,90,0.00,,,0.00,0.0,meteohub,2013-11-18 04:11:00,
2013-11-17 23:16:00,73.2,70.5,30.03,NE,40,0.0,0.0,91,0.00,,,0.00,0.0,meteohub,2013-11-18 04:16:00,
2013-11-17 23:21:00,73.0,70.3,30.03,NE,40,0.0,0.0,91,0.00,,,0.00,0.0,meteohub,2013-11-18 04:21:00,
2013-11-17 23:26:00,73.0,70.3,30.03,NE,40,0.0,0.0,91,0.00,,,0.00,0.0,meteohub,2013-11-18 04:26:00,
2013-11-17 23:31:00,72.9,70.2,30.03,NE,39,0.0,0.0,91,0.00,,,0.00,0.0,meteohub,2013-11-18 04:31:00,
2013-11-17 23:36:00,73.0,70.3,30.03,NE,39,0.0,0.0,91,0.00,,,0.00,0.0,meteohub,2013-11-18 04:36:00,
2013-11-17 23:41:00,73.0,70.5,30.03,NE,40,0.0,0.0,92,0.00,,,0.00,0.0,meteohub,2013-11-18 04:41:00,
2013-11-17 23:46:00,73.2,70.7,30.02,NE,40,0.0,0.0,92,0.00,,,0.00,0.0,meteohub,2013-11-18 04:46:00,
2013-11-17 23:51:00,73.0,70.5,30.02,NE,40,0.0,0.0,92,0.00,,,0.00,0.0,meteohub,2013-11-18 04:51:00,
2013-11-17 23:56:00,73.0,70.5,30.02,NE,40,0.0,0.0,92,0.00,,,0.00,0.0,meteohub,2013-11-18 04:56:00,